| ตารางข้อมูล | TH20402 | TH4529A | TH4529D | TH814 | ค้นข้อมูล1 | ค้นข้อมูล2 | ค่าสูงสุด-ต่ำสุด |  

Select Sensor -->| 20402 | 4529A | 4529D | 814 | 824 | 834 | 844 | หน้าจอย่อ | 4529 |
ข้อมูลรวม (ยังไม่ได้เลือกรายการ)

IDRoomDate  Temp  Humidity
 51603  20402  2021-09-27 11:46:56  27.9  30.0 
 51602  4529A  2021-09-27 11:45:04  28.6  56.5 
 51601  4529D  2021-09-27 11:44:45  30.5  72.1 
 51600  814  2021-09-27 11:37:58  28.5  90.2 
 51599  20402  2021-09-27 11:26:56  28.0  30.7 
 51598  4529A  2021-09-27 11:25:02  27.9  58.3 
 51597  4529D  2021-09-27 11:24:43  30.6  71.3 
 51596  814  2021-09-27 11:17:55  28.5  90.2 
 51595  20402  2021-09-27 11:06:55  28.2  30.9 
 51594  4529A  2021-09-27 11:04:59  28.8  65.2 
 51593  4529D  2021-09-27 11:04:40  30.7  70.8 
 51592  814  2021-09-27 10:57:53  28.5  90.2 
 51591  20402  2021-09-27 10:46:55  28.0  31.3 
 51590  4529A  2021-09-27 10:44:57  28.6  68.4 
 51589  4529D  2021-09-27 10:44:38  30.3  72.2 
 51588  814  2021-09-27 10:37:51  28.5  90.2 
 51587  20402  2021-09-27 10:26:55  27.8  31.2 
 51586  4529A  2021-09-27 10:24:55  28.8  66.6 
 51585  4529D  2021-09-27 10:24:35  30.4  71.3 
 51584  814  2021-09-27 10:17:46  28.4  90.1 
 51583  20402  2021-09-27 10:06:54  28.3  32.6 
 51582  4529A  2021-09-27 10:04:52  28.3  64.5 
 51581  4529D  2021-09-27 10:04:33  30.4  70.8 
 51580  814  2021-09-27 09:57:44  28.5  90.2 
 51579  20402  2021-09-27 09:46:54  28.4  33.1 
 51578  4529A  2021-09-27 09:44:50  28.3  64.6 
 51577  4529D  2021-09-27 09:44:31  30.0  71.3 
 51576  814  2021-09-27 09:37:41  28.5  90.2 
 51575  20402  2021-09-27 09:26:54  28.1  34.3 
 51574  4529A  2021-09-27 09:24:47  28.2  68.3 
 51573  4529D  2021-09-27 09:24:28  29.8  71.3 
 51572  814  2021-09-27 09:17:39  28.5  90.2 
 51571  20402  2021-09-27 09:06:53  28.4  36.6 
 51570  4529A  2021-09-27 09:04:45  28.2  67.9 
 51569  4529D  2021-09-27 09:04:26  30.2  69.8 
 51568  814  2021-09-27 08:57:36  28.5  90.3 
 51567  20402  2021-09-27 08:46:53  28.6  38.7 
 51566  4529A  2021-09-27 08:44:43  28.0  64.5 
 51565  4529D  2021-09-27 08:44:24  29.6  72.0 
 51564  814  2021-09-27 08:37:34  28.4  90.4 
 51563  20402  2021-09-27 08:26:52  29.0  43.3 
 51562  4529A  2021-09-27 08:24:40  28.2  66.6 
 51561  4529D  2021-09-27 08:24:21  29.7  72.0 
 51560  814  2021-09-27 08:17:31  28.4  90.4 
 51559  20402  2021-09-27 08:06:52  29.3  46.4 
 51558  4529A  2021-09-27 08:04:38  28.2  65.2 
 51557  4529D  2021-09-27 08:04:19  30.0  70.7 
 51556  814  2021-09-27 07:57:29  28.4  90.6 
 51555  20402  2021-09-27 07:46:52  29.2  46.3 
 51554  4529A  2021-09-27 07:44:36  28.1  64.3 
 51553  4529D  2021-09-27 07:44:17  29.5  70.9 
 51552  814  2021-09-27 07:37:27  28.3  90.8 
 51551  20402  2021-09-27 07:26:51  29.5  46.1 
 51550  4529A  2021-09-27 07:24:33  28.0  64.0 
 51549  4529D  2021-09-27 07:24:14  29.6  71.0 
 51548  814  2021-09-27 07:17:24  28.4  90.8 
 51547  20402  2021-09-27 07:06:51  29.3  46.0 
 51546  4529A  2021-09-27 07:04:31  28.2  61.8 
 51545  4529D  2021-09-27 07:04:12  30.1  68.7 
 51544  814  2021-09-27 06:57:22  28.4  90.9 
 51543  20402  2021-09-27 06:46:50  29.2  45.9 
 51542  4529A  2021-09-27 06:44:29  28.0  59.3 
 51541  4529D  2021-09-27 06:44:09  29.1  71.5 
 51540  814  2021-09-27 06:37:19  28.4  90.9 
 51539  20402  2021-09-27 06:26:50  29.2  46.4 
 51538  4529A  2021-09-27 06:24:26  26.8  54.0 
 51537  4529D  2021-09-27 06:24:07  29.5  70.2 
 51536  814  2021-09-27 06:17:17  28.4  90.9 
 51535  20402  2021-09-27 06:06:50  0.0  0.0 
 51534  4529A  2021-09-27 06:04:24  27.3  54.5 
 51533  4529D  2021-09-27 06:04:05  29.8  69.6 
 51532  814  2021-09-27 05:57:14  28.4  91.0 

Data every 20 minute.